# IPR Planet
# Copyright Planet Labs PBC
# Documentation docs.vandersat.com
# Creation date 2016-01-01
# Contact information www.planet.com
date,SM-SMAP-LN-DESC_V003_100,SM-SMAP-LN-DESC_V003_100 AVG,SM-SMAP-LN-DESC_V003_100 CLIM
2018-01-01,,0.3886,0.3399
2018-01-02,0.3316,0.3863,0.3455
2018-01-03,0.5487,0.3863,0.3459
2018-01-04,,0.3815,0.3427
2018-01-05,0.3858,0.3814,0.3415
2018-01-06,0.3808,0.3795,0.3405
2018-01-07,0.3870,0.3788,0.3398
2018-01-08,0.3205,0.3788,0.3404
2018-01-09,,0.3794,0.3412
2018-01-10,0.3657,0.3816,0.3415
2018-01-11,0.3707,0.3816,0.3419
2018-01-12,,0.3808,0.3367
2018-01-13,0.3431,0.3879,0.3371
2018-01-14,0.3802,0.3762,0.3311
2018-01-15,0.3603,0.3745,0.3293
2018-01-16,0.3716,0.3737,0.3266
2018-01-17,,0.3722,0.3303
2018-01-18,0.3860,0.3696,0.3306
2018-01-19,0.4110,0.3731,0.3317
2018-01-20,,0.3742,0.3329
2018-01-21,0.3691,0.3748,0.3338
2018-01-22,0.4376,0.3775,0.3344
2018-01-23,0.3743,0.3771,0.3354
2018-01-24,0.3478,0.3793,0.3374
2018-01-25,,0.3762,0.3373
2018-01-26,0.3585,0.3788,0.3388
2018-01-27,0.3469,0.3794,0.3393
2018-01-28,,0.3765,0.3376
2018-01-29,0.3896,0.3676,0.3346
2018-01-30,0.3758,0.3560,0.3297
2018-01-31,0.4104,0.3499,0.3269
2018-02-01,0.3711,0.3486,0.3322
2018-02-02,,0.3452,0.3348
2018-02-03,0.3326,0.3427,0.3320
2018-02-04,0.4002,0.3423,0.3339
2018-02-05,,0.3419,0.3352
2018-02-06,0.3366,0.3417,0.3317
2018-02-07,0.2525,0.3427,0.3316
2018-02-08,0.2368,0.3443,0.3314
2018-02-09,0.2580,0.3413,0.3304
2018-02-10,,0.3388,0.3282
2018-02-11,0.3862,0.3317,0.3244
2018-02-12,0.3374,0.3289,0.3227
2018-02-13,,0.3249,0.3191
2018-02-14,0.3365,0.3202,0.3154
2018-02-15,0.3546,0.3096,0.3104
2018-02-16,0.3622,0.3033,0.3066
2018-02-17,0.3687,0.3010,0.3051
2018-02-18,,0.2964,0.3013
2018-02-19,0.3379,0.2933,0.2983
2018-02-20,0.3040,0.2959,0.2993
2018-02-21,,0.2816,0.2898
2018-02-22,0.2693,0.2632,0.2822
2018-02-23,0.2623,0.2567,0.2799
2018-02-24,0.2414,0.2552,0.2787
2018-02-25,0.2079,0.2498,0.2770
2018-02-26,,0.2392,0.2709
2018-02-27,0.1834,0.2318,0.2681
2018-02-28,0.1903,0.2220,0.2636
2018-03-01,,0.2323,0.2672
2018-03-02,0.0822,0.2299,0.2662
2018-03-03,0.1106,0.2319,0.2670
2018-03-04,0.2385,0.2370,0.2697
2018-03-05,0.2333,0.2349,0.2709
2018-03-06,,0.2374,0.2738
2018-03-07,0.1959,0.2428,0.2771
2018-03-08,0.2515,0.2453,0.2790
2018-03-09,,0.2448,0.2793
2018-03-10,0.3756,0.2476,0.2809
2018-03-11,0.3027,0.2546,0.2865
2018-03-12,0.3334,0.2566,0.2871
2018-03-13,0.3145,0.2683,0.2946
2018-03-14,,0.2811,0.2983
2018-03-15,0.2994,0.2857,0.2996
2018-03-16,0.3228,0.2895,0.3023
2018-03-17,,0.2898,0.3009
2018-03-18,0.2378,0.2978,0.3044
2018-03-19,0.2248,0.3014,0.3054
2018-03-20,0.2963,0.3004,0.3044
2018-03-21,0.2871,0.2954,0.3014
2018-03-22,,0.2981,0.3024
2018-03-23,0.3028,0.3013,0.3020
2018-03-24,0.3078,0.3004,0.3015
2018-03-25,,0.3015,0.2987
2018-03-26,0.2951,0.3015,0.2947
2018-03-27,0.3160,0.3062,0.2957
2018-03-28,0.3048,0.3060,0.2949
2018-03-29,0.2861,0.3105,0.2949
2018-03-30,,0.3150,0.2951
2018-03-31,0.3426,0.3157,0.2942
2018-04-01,0.3817,0.3177,0.2941
2018-04-02,,0.3155,0.2887
2018-04-03,0.3181,0.3130,0.2850
2018-04-04,0.2980,0.3116,0.2833
2018-04-05,0.3938,0.3086,0.2800
2018-04-06,0.3028,0.3095,0.2783
2018-04-07,,0.3056,0.2745
2018-04-08,0.2927,0.3007,0.2702
2018-04-09,0.3059,0.3017,0.2690
2018-04-10,,0.2965,0.2642
2018-04-11,0.2838,0.2881,0.2565
2018-04-12,0.2660,0.2782,0.2509
2018-04-13,0.2864,0.2733,0.2465
2018-04-14,0.2645,0.2703,0.2417
2018-04-15,,0.2648,0.2367
2018-04-16,0.2563,0.2556,0.2316
2018-04-17,0.2312,0.2520,0.2279
2018-04-18,,0.2466,0.2239
2018-04-19,0.2237,0.2380,0.2183
2018-04-20,0.2159,0.2295,0.2127
2018-04-21,0.2334,0.2319,0.2150
2018-04-22,0.1998,0.2282,0.2127
2018-04-23,,0.2258,0.2116
2018-04-24,0.2160,0.2188,0.2077
2018-04-25,,0.2152,0.2057
2018-04-26,,0.2127,0.2039
2018-04-27,0.1764,0.2081,0.2000
2018-04-28,0.1721,0.2078,0.2001
2018-04-29,0.1873,0.2063,0.1993
2018-04-30,0.2660,0.2051,0.1973
2018-05-01,,0.2054,0.2008
2018-05-02,0.2323,0.1997,0.1983
2018-05-03,0.1877,0.1996,0.1993
2018-05-04,,0.1986,0.2003
2018-05-05,0.1799,0.1987,0.2007
2018-05-06,0.1912,0.2017,0.2026
2018-05-07,0.2282,0.1991,0.2008
2018-05-08,0.1853,0.2006,0.2011
2018-05-09,,0.2005,0.2000
2018-05-10,0.2207,0.2006,0.1989
2018-05-11,0.1523,0.1959,0.1956
2018-05-12,,0.1934,0.1949
2018-05-13,0.1851,0.1881,0.1906
2018-05-14,0.2171,0.1908,0.1923
2018-05-15,0.2440,0.1878,0.1894
2018-05-16,0.1599,0.1883,0.1883
2018-05-17,,0.1867,0.1877
2018-05-18,0.1702,0.1809,0.1856
2018-05-19,0.1884,0.1805,0.1854
2018-05-20,,0.1784,0.1844
2018-05-21,0.1583,0.1779,0.1811
2018-05-22,0.1528,0.1803,0.1814
2018-05-23,0.2287,0.1793,0.1803
2018-05-24,0.1424,0.1789,0.1780
2018-05-25,,0.1781,0.1774
2018-05-26,0.1670,0.1726,0.1735
2018-05-27,0.1408,0.1735,0.1734
2018-05-28,,0.1714,0.1753
2018-05-29,0.1487,0.1690,0.1738
2018-05-30,0.2130,0.1689,0.1743
2018-05-31,0.1878,0.1694,0.1750
2018-06-01,0.1642,0.1702,0.1744
2018-06-02,,0.1690,0.1738
2018-06-03,0.2046,0.1636,0.1702
2018-06-04,0.1618,0.1651,0.1720
2018-06-05,,0.1633,0.1727
2018-06-06,0.1419,0.1600,0.1760
2018-06-07,0.1348,0.1620,0.1762
2018-06-08,0.1866,0.1599,0.1754
2018-06-09,0.1775,0.1606,0.1756
2018-06-10,,0.1580,0.1740
2018-06-11,0.1355,0.1550,0.1725
2018-06-12,0.1471,0.1543,0.1730
2018-06-13,,0.1538,0.1753
2018-06-14,0.1381,0.1519,0.1753
2018-06-15,0.1180,0.1506,0.1775
2018-06-16,0.1704,0.1497,0.1771
2018-06-17,0.1284,0.1502,0.1734
2018-06-18,,0.1489,0.1742
2018-06-19,0.1740,0.1431,0.1713
2018-06-20,0.1416,0.1407,0.1705
2018-06-21,,0.1366,0.1698
2018-06-22,0.1474,0.1320,0.1675
2018-06-23,0.1758,0.1272,0.1701
2018-06-24,0.1413,0.1229,0.1679
2018-06-25,0.1365,0.1218,0.1693
2018-06-26,,0.1189,0.1503
2018-06-27,0.1160,0.1144,0.1480
2018-06-28,0.0993,0.1134,0.1435
2018-06-29,,0.1112,0.1112
2018-06-30,0.0803,0.1032,0.1032
2018-07-01,0.0663,0.1004,0.1004
2018-07-02,0.0753,0.0993,0.0993
2018-07-03,0.0570,0.0958,0.0958
2018-07-04,,0.0898,0.0898
2018-07-05,0.0743,0.0857,0.0857
2018-07-06,0.1028,0.0818,0.0818
2018-07-07,,0.0830,0.0830
2018-07-08,0.0803,0.0780,0.0780
2018-07-09,0.0535,0.0764,0.0764
2018-07-10,,0.0761,0.0761
2018-07-11,0.0832,0.0758,0.0758
2018-07-12,,0.0784,0.0784
2018-07-13,0.0907,0.0779,0.0779
2018-07-14,0.0840,0.0797,0.0797
2018-07-15,,0.0799,0.0799
2018-07-16,0.0996,0.0774,0.0916
2018-07-17,0.0453,0.0740,0.0899
2018-07-18,,0.0749,0.0939
2018-07-19,0.0735,0.0745,0.0914
2018-07-20,,0.0817,0.0942
2018-07-21,0.0991,0.0859,0.0959
2018-07-22,0.0696,0.0861,0.0960
2018-07-23,,0.0873,0.1063
2018-07-24,0.0825,0.0863,0.1107
2018-07-25,0.0426,0.0863,0.1107
2018-07-26,0.0584,0.0863,0.1125
2018-07-27,0.0865,0.0854,0.1137
2018-07-28,,0.0872,0.1157
2018-07-29,0.1469,0.0857,0.1149
2018-07-30,0.1404,0.0865,0.1153
2018-07-31,,0.0876,0.1147
2018-08-01,0.1038,0.0974,0.1208
2018-08-02,0.0755,0.1098,0.1270
2018-08-03,0.0839,0.1147,0.1296
2018-08-04,0.0872,0.1169,0.1337
2018-08-05,,0.1322,0.1458
2018-08-06,0.0708,0.1439,0.1540
2018-08-07,0.0641,0.1480,0.1573
2018-08-08,,0.1581,0.1668
2018-08-09,0.1020,0.1602,0.1712
2018-08-10,0.2473,0.1638,0.1759
2018-08-11,0.2551,0.1642,0.1758
2018-08-12,0.1885,0.1682,0.1746
2018-08-13,,0.1720,0.1754
2018-08-14,0.2727,0.1748,0.1755
2018-08-15,0.2341,0.1811,0.1789
2018-08-16,,0.1821,0.1778
2018-08-17,0.2998,0.1890,0.1794
2018-08-18,0.1773,0.2010,0.1863
2018-08-19,0.1946,0.2007,0.1840
2018-08-20,0.1706,0.2073,0.1869
2018-08-21,,0.2042,0.1836
2018-08-22,0.1321,0.1983,0.1793
2018-08-23,0.1264,0.1990,0.1800
2018-08-24,,0.1963,0.1761
2018-08-25,0.1958,0.1884,0.1704
2018-08-26,0.1742,0.1852,0.1659
2018-08-27,0.2439,0.1818,0.1660
2018-08-28,0.1964,0.1739,0.1605
2018-08-29,,0.1732,0.1596
2018-08-30,0.2019,0.1726,0.1602
2018-08-31,0.1669,0.1727,0.1593
2018-09-01,,0.1740,0.1607
2018-09-02,0.1584,0.1763,0.1621
2018-09-03,0.1541,0.1832,0.1660
2018-09-04,0.1859,0.1830,0.1678
2018-09-05,0.1299,0.1821,0.1689
2018-09-06,,0.1842,0.1719
2018-09-07,0.1674,0.1800,0.1732
2018-09-08,0.1852,0.1788,0.1747
2018-09-09,,0.1783,0.1772
2018-09-10,0.1922,0.1752,0.1775
2018-09-11,0.1658,0.1749,0.1794
2018-09-12,0.2294,0.1746,0.1785
2018-09-13,0.1800,0.1757,0.1800
2018-09-14,,0.1824,0.1867
2018-09-15,0.2056,0.1855,0.1873
2018-09-16,0.1809,0.1894,0.1889
2018-09-17,,0.1922,0.1907
2018-09-18,0.1715,0.1969,0.1940
2018-09-19,0.1544,0.2008,0.1965
2018-09-20,0.1622,0.1999,0.1996
2018-09-21,0.1711,0.2004,0.2010
2018-09-22,,0.2022,0.2089
2018-09-23,0.2548,0.2019,0.2088
2018-09-24,0.2314,0.2035,0.2099
2018-09-25,,0.2047,0.2122
2018-09-26,0.2313,0.2042,0.2150
2018-09-27,0.2370,0.2058,0.2140
2018-09-28,0.2438,0.2063,0.2158
2018-09-29,0.1875,0.2087,0.2216
2018-09-30,,0.2117,0.2261
2018-10-01,0.1922,0.2133,0.2269
2018-10-02,0.2252,0.2163,0.2317
2018-10-03,,0.2157,0.2393
2018-10-04,0.2218,0.2117,0.2384
2018-10-05,0.1980,0.2094,0.2420
2018-10-06,0.2047,0.2069,0.2402
2018-10-07,0.2144,0.2052,0.2430
2018-10-08,,0.2005,0.2455
2018-10-09,0.2008,0.1942,0.2432
2018-10-10,0.1860,0.1947,0.2432
2018-10-11,,0.1912,0.2397
2018-10-12,0.2061,0.1898,0.2386
2018-10-13,0.1960,0.1884,0.2379
2018-10-14,0.1963,0.1865,0.2357
2018-10-15,0.1686,0.1841,0.2377
2018-10-16,,0.1832,0.2379
2018-10-17,0.1661,0.1823,0.2365
2018-10-18,0.1499,0.1800,0.2365
2018-10-19,,0.1818,0.2362
2018-10-20,0.1420,0.1828,0.2373
2018-10-21,0.1706,0.1948,0.2434
2018-10-22,0.2046,0.1986,0.2447
2018-10-23,0.1575,0.1981,0.2419
2018-10-24,,0.2039,0.2465
2018-10-25,0.1851,0.2092,0.2492
2018-10-26,0.1906,0.2121,0.2517
2018-10-27,,0.2143,0.2545
2018-10-28,0.2071,0.2192,0.2561
2018-10-29,0.2151,0.2271,0.2594
2018-10-30,0.3667,0.2276,0.2599
2018-10-31,0.2558,0.2333,0.2648
2018-11-01,,0.2385,0.2650
2018-11-02,0.2820,0.2416,0.2663
2018-11-03,0.2762,0.2476,0.2706
2018-11-04,,0.2486,0.2713
2018-11-05,0.2450,0.2525,0.2755
2018-11-06,0.2395,0.2570,0.2789
2018-11-07,0.2693,0.2574,0.2788
2018-11-08,0.2341,0.2607,0.2821
2018-11-09,,0.2627,0.2869
2018-11-10,0.2493,0.2550,0.2845
2018-11-11,0.2500,0.2550,0.2859
2018-11-12,,0.2541,0.2864
2018-11-13,0.2629,0.2527,0.2848
2018-11-14,0.2441,0.2516,0.2843
2018-11-15,0.2575,0.2518,0.2852
2018-11-16,0.2633,0.2522,0.2844
2018-11-17,,0.2532,0.2850
2018-11-18,0.2445,0.2535,0.2865
2018-11-19,0.2516,0.2549,0.2878
2018-11-20,,0.2614,0.2909
2018-11-21,0.2423,0.2632,0.2925
2018-11-22,0.2614,0.2644,0.2944
2018-11-23,0.2586,0.2650,0.2954
2018-11-24,0.2552,0.2652,0.2975
2018-11-25,,0.2670,0.2984
2018-11-26,0.2536,0.2683,0.2991
2018-11-27,0.2738,0.2686,0.3005
2018-11-28,,0.2745,0.3040
2018-11-29,0.3523,0.2780,0.3047
2018-11-30,0.2774,0.2856,0.3076
2018-12-01,0.2678,0.2851,0.3081
2018-12-02,0.2743,0.2880,0.3123
2018-12-03,,0.2921,0.3147
2018-12-04,0.2718,0.2954,0.3153
2018-12-05,0.2765,0.2983,0.3164
2018-12-06,,0.2988,0.3168
2018-12-07,0.3563,0.3036,0.3201
2018-12-08,0.2971,0.3059,0.3206
2018-12-09,0.3662,0.3033,0.3191
2018-12-10,0.2773,0.3001,0.3189
2018-12-11,,0.3005,0.3194
2018-12-12,0.3236,0.3034,0.3208
2018-12-13,0.3080,0.3055,0.3216
2018-12-14,,0.3047,0.3198
2018-12-15,0.3063,0.3084,0.3208
2018-12-16,0.3250,0.3120,0.3228
2018-12-17,0.3093,0.3115,0.3222
2018-12-18,0.2640,0.3085,0.3208
2018-12-19,,0.3084,0.3204
2018-12-20,0.2837,0.3036,0.3173
2018-12-21,0.3116,0.3055,0.3176
2018-12-22,,0.3044,0.3160
2018-12-23,0.2943,0.3044,0.3157
2018-12-24,0.3267,0.3034,0.3161
2018-12-25,0.3308,0.3028,0.3158
2018-12-26,0.3041,0.3026,0.3163
2018-12-27,,0.3023,0.3160
2018-12-28,0.2955,0.3014,0.3156
2018-12-29,0.2943,0.3040,0.3168
2018-12-30,,0.3045,0.3163
2018-12-31,0.2886,0.3051,0.3165
2019-01-01,0.3232,0.3043,0.3399
2019-01-02,0.2941,0.3047,0.3455
2019-01-03,0.2937,0.3054,0.3459
2019-01-04,,0.3039,0.3427
2019-01-05,0.3206,0.3016,0.3415
2019-01-06,0.2951,0.3015,0.3405
2019-01-07,,0.3007,0.3398
2019-01-08,0.3106,0.3019,0.3404
2019-01-09,0.2929,0.3029,0.3412
2019-01-10,0.3004,0.3013,0.3415
2019-01-11,0.3104,0.3021,0.3419
2019-01-12,,0.2925,0.3367
2019-01-13,0.3042,0.2864,0.3371
2019-01-14,0.2968,0.2859,0.3311
2019-01-15,,0.2841,0.3293
2019-01-16,0.2902,0.2796,0.3266
2019-01-17,0.3130,0.2883,0.3303
2019-01-18,0.3100,0.2916,0.3306
2019-01-19,0.2765,0.2903,0.3317
2019-01-20,,0.2916,0.3329
2019-01-21,0.1796,0.2927,0.3338
2019-01-22,0.2021,0.2914,0.3344
2019-01-23,,0.2938,0.3354
2019-01-24,0.2588,0.2955,0.3374
2019-01-25,0.2529,0.2984,0.3373
2019-01-26,0.4260,0.2987,0.3388
2019-01-27,0.3405,0.2993,0.3393
2019-01-28,,0.2987,0.3376
2019-01-29,0.3126,0.3015,0.3346
2019-01-30,0.3165,0.3033,0.3297
2019-01-31,,0.3039,0.3269
2019-02-01,0.3270,0.3159,0.3322
2019-02-02,0.3298,0.3245,0.3348
2019-02-03,0.3407,0.3213,0.3320
2019-02-04,0.3031,0.3254,0.3339
2019-02-05,,0.3285,0.3352
2019-02-06,0.3050,0.3218,0.3317
2019-02-07,0.3518,0.3204,0.3316
2019-02-08,,0.3184,0.3314
2019-02-09,0.3114,0.3196,0.3304
2019-02-10,0.3602,0.3177,0.3282
2019-02-11,0.3305,0.3172,0.3244
2019-02-12,0.2736,0.3165,0.3227
2019-02-13,,0.3133,0.3191
2019-02-14,0.2981,0.3107,0.3154
2019-02-15,0.3259,0.3112,0.3104
2019-02-16,,0.3099,0.3066
2019-02-17,0.2901,0.3092,0.3051
2019-02-18,0.3298,0.3062,0.3013
2019-02-19,0.2884,0.3032,0.2983
2019-02-20,0.3093,0.3027,0.2993
2019-02-21,,0.2980,0.2898
2019-02-22,0.2818,0.3011,0.2822
2019-02-23,0.3011,0.3031,0.2799
2019-02-24,,0.3022,0.2787
2019-02-25,0.2908,0.3042,0.2770
2019-02-26,0.2946,0.3025,0.2709
2019-02-27,0.3075,0.3043,0.2681
2019-02-28,0.2586,0.3052,0.2636
2019-03-01,,0.3021,0.2672
2019-03-02,0.2895,0.3026,0.2662
2019-03-03,0.3774,0.3021,0.2670
2019-03-04,,0.3023,0.2697
2019-03-05,0.2904,0.3068,0.2709
2019-03-06,0.3281,0.3102,0.2738
2019-03-07,0.3005,0.3113,0.2771
2019-03-08,0.3307,0.3127,0.2790
2019-03-09,,0.3138,0.2793
2019-03-10,0.2831,0.3143,0.2809
2019-03-11,0.2950,0.3183,0.2865
2019-03-12,,0.3176,0.2871
2019-03-13,0.3058,0.3210,0.2946
2019-03-14,0.3496,0.3155,0.2983
2019-03-15,0.3516,0.3135,0.2996
2019-03-16,0.3279,0.3151,0.3023
2019-03-17,,0.3120,0.3009
2019-03-18,0.3116,0.3109,0.3044
2019-03-19,0.3153,0.3095,0.3054
2019-03-20,,0.3083,0.3044
2019-03-21,0.3073,0.3073,0.3014
2019-03-22,0.3404,0.3067,0.3024
2019-03-23,0.2945,0.3028,0.3020
2019-03-24,0.2849,0.3026,0.3015
2019-03-25,,0.2958,0.2987
2019-03-26,0.2819,0.2880,0.2947
2019-03-27,0.2838,0.2851,0.2957
2019-03-28,,0.2837,0.2949
2019-03-29,0.2922,0.2793,0.2949
2019-03-30,0.2677,0.2752,0.2951
2019-03-31,0.2866,0.2728,0.2942
2019-04-01,0.2433,0.2705,0.2941
2019-04-02,,0.2618,0.2887
2019-04-03,0.2476,0.2571,0.2850
2019-04-04,0.2350,0.2551,0.2833
2019-04-05,,0.2515,0.2800
2019-04-06,0.2640,0.2470,0.2783
2019-04-07,0.2452,0.2434,0.2745
2019-04-08,0.2540,0.2398,0.2702
2019-04-09,0.2363,0.2363,0.2690
2019-04-10,,0.2318,0.2642
2019-04-11,0.2107,0.2249,0.2565
2019-04-12,0.2227,0.2236,0.2509
2019-04-13,,0.2197,0.2465
2019-04-14,0.2008,0.2132,0.2417
2019-04-15,0.2152,0.2085,0.2367
2019-04-16,0.2297,0.2076,0.2316
2019-04-17,0.1854,0.2038,0.2279
2019-04-18,,0.2013,0.2239
2019-04-19,0.2012,0.1987,0.2183
2019-04-20,0.1829,0.1960,0.2127
2019-04-21,,0.1980,0.2150
2019-04-22,0.1650,0.1972,0.2127
2019-04-23,0.1494,0.1974,0.2116
2019-04-24,0.1656,0.1965,0.2077
2019-04-25,0.1928,0.1963,0.2057
2019-04-26,,0.1950,0.2039
2019-04-27,0.2082,0.1919,0.2000
2019-04-28,0.2145,0.1923,0.2001
2019-04-29,,0.1922,0.1993
2019-04-30,0.2260,0.1896,0.1973
2019-05-01,0.1984,0.1962,0.2008
2019-05-02,0.2259,0.1969,0.1983
2019-05-03,0.1837,0.1990,0.1993
2019-05-04,,0.2019,0.2003
2019-05-05,0.1963,0.2028,0.2007
2019-05-06,0.1825,0.2035,0.2026
2019-05-07,,0.2025,0.2008
2019-05-08,0.1904,0.2015,0.2011
2019-05-09,0.1617,0.1995,0.2000
2019-05-10,0.2827,0.1972,0.1989
2019-05-11,0.2073,0.1953,0.1956
2019-05-12,,0.1963,0.1949
2019-05-13,0.1927,0.1931,0.1906
2019-05-14,0.1784,0.1938,0.1923
2019-05-15,,0.1909,0.1894
2019-05-16,0.1895,0.1882,0.1883
2019-05-17,0.1931,0.1886,0.1877
2019-05-18,0.1833,0.1902,0.1856
2019-05-19,0.1634,0.1902,0.1854
2019-05-20,,0.1903,0.1844
2019-05-21,0.2143,0.1843,0.1811
2019-05-22,0.1775,0.1825,0.1814
2019-05-23,,0.1814,0.1803
2019-05-24,0.1507,0.1771,0.1780
2019-05-25,0.1559,0.1768,0.1774
2019-05-26,,0.1744,0.1735
2019-05-27,0.2128,0.1734,0.1734
2019-05-28,,0.1793,0.1753
2019-05-29,0.1630,0.1785,0.1738
2019-05-30,0.1983,0.1797,0.1743
2019-05-31,,0.1807,0.1750
2019-06-01,0.1669,0.1786,0.1744
2019-06-02,0.1327,0.1787,0.1738
2019-06-03,0.1741,0.1768,0.1702
2019-06-04,0.1411,0.1788,0.1720
2019-06-05,,0.1820,0.1727
2019-06-06,0.2764,0.1921,0.1760
2019-06-07,0.1726,0.1905,0.1762
2019-06-08,,0.1910,0.1754
2019-06-09,0.1930,0.1905,0.1756
2019-06-10,0.1850,0.1900,0.1740
2019-06-11,,0.1900,0.1725
2019-06-12,0.1528,0.1918,0.1730
2019-06-13,,0.1967,0.1753
2019-06-14,0.1978,0.1987,0.1753
2019-06-15,0.3224,0.2045,0.1775
2019-06-16,,0.2045,0.1771
2019-06-17,0.1979,0.1965,0.1734
2019-06-18,0.1554,0.1995,0.1742
2019-06-19,0.1917,0.1995,0.1713
2019-06-20,,0.2004,0.1705
2019-06-21,,0.2030,0.1698
2019-06-22,,0.2030,0.1675
2019-06-23,,0.2130,0.1701
2019-06-24,,0.2130,0.1679
2019-06-25,,0.2168,0.1693
2019-06-26,,0.1817,0.1503
2019-06-27,,0.1817,0.1480
2019-06-28,,0.1735,0.1435
2019-06-29,,,0.1112
2019-06-30,,,0.1032
2019-07-01,,,0.1004
2019-07-02,,,0.0993
2019-07-03,,,0.0958
2019-07-04,,,0.0898
2019-07-05,,,0.0857
2019-07-06,,,0.0818
2019-07-07,,,0.0830
2019-07-08,,,0.0780
2019-07-09,,,0.0764
2019-07-10,,,0.0761
2019-07-11,,,0.0758
2019-07-12,,,0.0784
2019-07-13,,,0.0779
2019-07-14,,,0.0797
2019-07-15,,,0.0799
2019-07-16,,0.1058,0.0916
2019-07-17,,0.1058,0.0899
2019-07-18,,0.1130,0.0939
2019-07-19,,0.1083,0.0914
2019-07-20,,0.1068,0.0942
2019-07-21,,0.1059,0.0959
2019-07-22,,0.1059,0.0960
2019-07-23,,0.1253,0.1063
2019-07-24,0.1187,0.1351,0.1107
2019-07-25,0.0929,0.1351,0.1107
2019-07-26,,0.1387,0.1125
2019-07-27,0.1273,0.1421,0.1137
2019-07-28,0.0945,0.1441,0.1157
2019-07-29,0.1006,0.1441,0.1149
2019-07-30,0.1014,0.1441,0.1153
2019-07-31,,0.1418,0.1147
2019-08-01,0.2416,0.1441,0.1208
2019-08-02,0.2040,0.1441,0.1270
2019-08-03,,0.1445,0.1296
2019-08-04,0.1675,0.1506,0.1337
2019-08-05,0.1727,0.1594,0.1458
2019-08-06,0.1643,0.1641,0.1540
2019-08-07,0.1439,0.1665,0.1573
2019-08-08,,0.1754,0.1668
2019-08-09,0.1135,0.1823,0.1712
2019-08-10,0.1746,0.1881,0.1759
2019-08-11,,0.1874,0.1758
2019-08-12,0.1503,0.1809,0.1746
2019-08-13,0.2104,0.1788,0.1754
2019-08-14,0.2243,0.1762,0.1755
2019-08-15,0.2344,0.1768,0.1789
2019-08-16,,0.1735,0.1778
2019-08-17,0.2280,0.1698,0.1794
2019-08-18,0.2038,0.1717,0.1863
2019-08-19,,0.1673,0.1840
2019-08-20,0.1774,0.1666,0.1869
2019-08-21,0.1445,0.1629,0.1836
2019-08-22,0.1729,0.1603,0.1793
2019-08-23,0.1363,0.1610,0.1800
2019-08-24,,0.1559,0.1761
2019-08-25,0.1233,0.1524,0.1704
2019-08-26,0.1100,0.1465,0.1659
2019-08-27,,0.1502,0.1660
2019-08-28,0.1063,0.1471,0.1605
2019-08-29,0.1031,0.1459,0.1596
2019-08-30,0.1183,0.1478,0.1602
2019-08-31,0.1220,0.1458,0.1593
2019-09-01,,0.1473,0.1607
2019-09-02,0.1341,0.1479,0.1621
2019-09-03,0.1710,0.1487,0.1660
2019-09-04,,0.1526,0.1678
2019-09-05,0.2019,0.1557,0.1689
2019-09-06,0.1816,0.1597,0.1719
2019-09-07,0.1865,0.1665,0.1732
2019-09-08,0.1753,0.1705,0.1747
2019-09-09,,0.1761,0.1772
2019-09-10,0.1668,0.1797,0.1775
2019-09-11,0.1823,0.1839,0.1794
2019-09-12,,0.1823,0.1785
2019-09-13,0.2065,0.1843,0.1800
2019-09-14,0.1704,0.1910,0.1867
2019-09-15,0.1687,0.1892,0.1873
2019-09-16,0.2686,0.1883,0.1889
2019-09-17,,0.1891,0.1907
2019-09-18,0.1868,0.1911,0.1940
2019-09-19,0.1735,0.1922,0.1965
2019-09-20,,0.1993,0.1996
2019-09-21,0.1605,0.2016,0.2010
2019-09-22,0.1636,0.2157,0.2089
2019-09-23,0.2726,0.2157,0.2088
2019-09-24,0.1608,0.2164,0.2099
2019-09-25,,0.2196,0.2122
2019-09-26,0.1943,0.2258,0.2150
2019-09-27,0.2156,0.2223,0.2140
2019-09-28,,0.2253,0.2158
2019-09-29,0.2983,0.2346,0.2216
2019-09-30,,0.2404,0.2261
2019-10-01,0.3791,0.2404,0.2269
2019-10-02,,0.2471,0.2317
2019-10-03,,0.2628,0.2393
2019-10-04,0.2128,0.2651,0.2384
2019-10-05,0.2492,0.2746,0.2420
2019-10-06,,0.2736,0.2402
2019-10-07,0.2614,0.2808,0.2430
2019-10-08,0.3085,0.2905,0.2455
2019-10-09,0.2490,0.2922,0.2432
2019-10-10,,0.2916,0.2432
2019-10-11,,0.2882,0.2397
2019-10-12,0.3526,0.2875,0.2386
2019-10-13,0.2998,0.2875,0.2379
2019-10-14,,0.2850,0.2357
2019-10-15,0.2624,0.2912,0.2377
2019-10-16,,0.2926,0.2379
2019-10-17,0.3226,0.2907,0.2365
2019-10-18,0.3106,0.2930,0.2365
2019-10-19,,0.2906,0.2362
2019-10-20,0.2505,0.2919,0.2373
2019-10-21,0.3706,0.2919,0.2434
2019-10-22,,0.2907,0.2447
2019-10-23,0.2546,0.2857,0.2419
2019-10-24,0.2940,0.2892,0.2465
2019-10-25,0.2671,0.2892,0.2492
2019-10-26,0.2668,0.2913,0.2517
2019-10-27,,0.2947,0.2545
2019-10-28,0.2777,0.2931,0.2561
2019-10-29,0.2653,0.2917,0.2594
2019-10-30,,0.2923,0.2599
2019-10-31,0.2752,0.2964,0.2648
2019-11-01,0.2823,0.2914,0.2650
2019-11-02,0.3490,0.2911,0.2663
2019-11-03,,0.2937,0.2706
2019-11-04,,0.2940,0.2713
2019-11-05,0.3391,0.2985,0.2755
2019-11-06,0.3005,0.3009,0.2789
2019-11-07,,0.3003,0.2788
2019-11-08,0.2997,0.3035,0.2821
2019-11-09,0.3073,0.3112,0.2869
2019-11-10,0.3007,0.3141,0.2845
2019-11-11,0.2876,0.3168,0.2859
2019-11-12,,0.3188,0.2864
2019-11-13,0.2975,0.3170,0.2848
2019-11-14,0.3298,0.3170,0.2843
2019-11-15,,0.3187,0.2852
2019-11-16,0.2920,0.3166,0.2844
2019-11-17,0.3234,0.3169,0.2850
2019-11-18,0.3720,0.3194,0.2865
2019-11-19,0.3549,0.3208,0.2878
2019-11-20,,0.3204,0.2909
2019-11-21,0.3090,0.3219,0.2925
2019-11-22,0.3239,0.3243,0.2944
2019-11-23,,0.3257,0.2954
2019-11-24,0.3429,0.3298,0.2975
2019-11-25,0.3085,0.3298,0.2984
2019-11-26,0.3044,0.3298,0.2991
2019-11-27,0.3574,0.3323,0.3005
2019-11-28,,0.3334,0.3040
2019-11-29,0.3026,0.3313,0.3047
2019-11-30,0.3220,0.3297,0.3076
2019-12-01,,0.3310,0.3081
2019-12-02,0.3453,0.3367,0.3123
2019-12-03,0.3591,0.3373,0.3147
2019-12-04,0.3302,0.3351,0.3153
2019-12-05,0.3295,0.3346,0.3164
2019-12-06,,0.3349,0.3168
2019-12-07,0.3394,0.3367,0.3201
2019-12-08,0.3410,0.3352,0.3206
2019-12-09,,0.3350,0.3191
2019-12-10,0.3499,0.3377,0.3189
2019-12-11,0.3939,0.3383,0.3194
2019-12-12,0.3328,0.3383,0.3208
2019-12-13,0.3025,0.3378,0.3216
2019-12-14,,0.3349,0.3198
2019-12-15,0.3128,0.3333,0.3208
2019-12-16,0.3320,0.3335,0.3228
2019-12-17,,0.3328,0.3222
2019-12-18,0.3315,0.3330,0.3208
2019-12-19,0.3437,0.3325,0.3204
2019-12-20,0.3316,0.3309,0.3173
2019-12-21,0.3372,0.3297,0.3176
2019-12-22,,0.3277,0.3160
2019-12-23,0.3160,0.3270,0.3157
2019-12-24,0.3051,0.3287,0.3161
2019-12-25,,0.3287,0.3158
2019-12-26,0.3230,0.3300,0.3163
2019-12-27,0.3417,0.3298,0.3160
2019-12-28,0.3333,0.3298,0.3156
2019-12-29,0.3079,0.3296,0.3168
2019-12-30,,0.3282,0.3163
2019-12-31,0.3641,0.3278,0.3165
2020-01-01,0.3223,0.3267,0.3399
